FW8143 Weather Reports


Display with metric or nautical units.
time (UTC)temp
F
wind
direction
speed
MPH
gust
MPH
rain 1hr
in
rain 24hr
in
rain mn
in
humidity
%
barometer
mb
20260901080938 61 236 6.0 15.0 0.00 0.13 0.00 75 1032.3
20260901080649 60 170 4.0 10.0 0.00 0.13 0.00 70 1031.6
20260901075926 60 139 3.0 12.0 0.00 0.13 0.00 71 1031.5
20260901075419 60 134 2.0 12.0 0.00 0.13 0.00 72 1031.5
20260901074912 60 90 3.0 10.0 0.00 0.13 0.00 71 1031.5
20260901074406 60 109 3.0 11.0 0.00 0.13 0.00 72 1031.6
20260901073900 60 120 4.0 11.0 0.00 0.13 0.00 73 1031.7
20260901073354 59 103 4.0 13.0 0.00 0.13 0.00 73 1031.7
20260901072848 59 144 4.0 13.0 0.00 0.13 0.00 74 1031.8
20260901072342 59 85 3.0 9.0 0.00 0.13 0.00 74 1032.0
20260901071835 59 82 2.0 8.0 0.00 0.13 0.00 75 1032.0
20260901071330 59 115 3.0 14.0 0.00 0.13 0.00 76 1031.8
20260901070824 58 94 4.0 14.0 0.00 0.13 0.00 76 1031.8
20260901070319 58 88 3.0 8.0 0.00 0.13 0.00 77 1031.7
20260901065821 58 130 4.0 11.0 0.00 0.13 0.00 78 1031.7
20260901065320 57 66 4.0 11.0 0.00 0.13 0.00 79 1031.7
20260901064822 57 139 4.0 11.0 0.00 0.13 0.00 80 1031.8
20260901064320 57 135 3.0 10.0 0.00 0.13 0.00 82 1031.8
20260901064127 56 140 3.0 11.0 0.00 0.13 0.00 83 1031.8
20260901064021 56 196 3.0 13.0 0.00 0.13 0.00 84 1031.8
20260901063037 56 181 3.0 13.0 0.00 0.13 0.00 86 1031.7
20260901062318 56 205 3.0 11.0 0.00 0.13 0.00 87 1031.8
20260901061818 56 291 1.0 10.0 0.00 0.13 0.00 88 1031.8
20260901061756 56 57 1.0 10.0 0.00 0.13 0.00 88 1031.8
20260901060818 56 38 5.0 10.0 0.00 0.13 0.00 88 1031.8
20260901060318 56 120 5.0 15.0 0.00 0.13 0.00 88 1031.7
20260901060039 56 109 5.0 15.0 0.00 0.13 0.13 89 1031.7
20260901055312 56 61 5.0 13.0 0.00 0.13 0.13 89 1031.7
20260901054806 55 135 5.0 13.0 0.00 0.13 0.13 90 1031.7
20260901054300 55 84 6.0 13.0 0.01 0.13 0.13 90 1031.8
20260901053754 55 94 6.0 11.0 0.01 0.13 0.13 91 1031.7
20260901053248 55 111 7.0 13.0 0.01 0.13 0.13 91 1031.8
20260901052742 55 95 8.0 14.0 0.01 0.13 0.13 91 1031.8
20260901052235 55 106 8.0 14.0 0.01 0.13 0.13 91 1031.8
20260901051731 56 108 6.0 13.0 0.01 0.13 0.13 92 1032.0
20260901051224 56 98 6.0 12.0 0.01 0.13 0.13 92 1032.1
20260901050718 56 82 7.0 12.0 0.01 0.13 0.13 92 1032.2
20260901050212 56 73 8.0 12.0 0.01 0.13 0.13 91 1032.2
20260901045705 56 39 7.0 12.0 0.01 0.13 0.13 91 1032.3
20260901045200 56 90 5.0 10.0 0.01 0.13 0.13 91 1032.6
20260901044654 56 63 4.0 11.0 0.01 0.13 0.13 91 1033.1
20260901044148 56 132 5.0 11.0 0.01 0.12 0.12 90 1033.6
20260901043641 55 142 4.0 9.0 0.01 0.12 0.12 90 1033.5
20260901043136 55 142 3.0 8.0 0.01 0.12 0.12 90 1033.3
20260901042629 55 119 3.0 7.0 0.01 0.12 0.12 91 1033.2
20260901042123 55 111 3.0 7.0 0.02 0.12 0.12 91 1033.0
20260901041618 55 107 4.0 9.0 0.03 0.12 0.12 91 1032.7
20260901041112 56 103 6.0 14.0 0.03 0.12 0.12 91 1032.6
20260901040606 56 106 5.0 14.0 0.03 0.12 0.12 91 1032.5
20260901040059 56 98 2.0 10.0 0.03 0.12 0.12 91 1032.3
20260901035555 56 191 3.0 14.0 0.03 0.12 0.12 91 1032.2
20260901035048 56 93 5.0 14.0 0.03 0.12 0.12 90 1032.0
20260901034542 56 123 6.0 17.0 0.03 0.12 0.12 90 1032.0
20260901034303 56 89 5.0 17.0 0.02 0.11 0.11 90 1032.1
20260901033758 56 133 5.0 13.0 0.02 0.11 0.11 90 1032.5
20260901033024 56 149 7.0 13.0 0.02 0.11 0.11 90 1032.3
20260901032518 56 61 7.0 13.0 0.02 0.11 0.11 89 1032.2
20260901032012 57 67 6.0 13.0 0.01 0.10 0.10 89 1032.6
20260901031506 57 26 5.0 11.0 0.00 0.09 0.09 89 1033.0
20260901031224 57 104 5.0 9.0 0.00 0.09 0.09 90 1032.8
20260901030717 57 101 5.0 9.0 0.00 0.09 0.09 90 1032.8
20260901025948 57 65 4.0 9.0 0.00 0.09 0.09 90 1032.8
20260901025441 57 60 2.0 7.0 0.00 0.09 0.09 91 1032.8
20260901024936 57 98 2.0 6.0 0.00 0.09 0.09 91 1032.8
20260901024430 57 115 4.0 7.0 0.00 0.09 0.09 91 1032.7
20260901023924 57 88 5.0 9.0 0.00 0.09 0.09 90 1032.3
20260901023418 57 67 5.0 9.0 0.01 0.09 0.09 90 1032.1
20260901022912 57 88 4.0 9.0 0.01 0.09 0.09 91 1032.1
20260901022405 57 95 4.0 9.0 0.01 0.09 0.09 91 1032.1
20260901021900 57 105 6.0 14.0 0.01 0.09 0.09 91 1032.0
20260901021354 57 131 8.0 14.0 0.02 0.09 0.09 91 1031.6
20260901020848 58 96 8.0 14.0 0.02 0.09 0.09 90 1031.2
20260901020342 58 71 8.0 13.0 0.02 0.09 0.09 91 1031.2
20260901015835 58 23 7.0 13.0 0.02 0.09 0.09 91 1031.2
20260901015330 58 11 4.0 9.0 0.02 0.09 0.09 91 1031.5
20260901014824 58 46 3.0 8.0 0.03 0.09 0.09 91 1031.7
20260901014318 58 69 3.0 6.0 0.03 0.09 0.09 90 1031.8
20260901014031 58 82 3.0 5.0 0.03 0.09 0.09 90 1031.7
20260901013311 58 90 3.0 8.0 0.02 0.08 0.08 90 1031.7
20260901012812 58 92 4.0 9.0 0.02 0.08 0.08 90 1031.5
20260901012537 58 34 4.0 9.0 0.02 0.08 0.08 90 1031.3
20260901011808 58 77 5.0 14.0 0.03 0.08 0.08 89 1031.5
20260901011531 58 117 6.0 14.0 0.02 0.07 0.07 89 1031.3
20260901010808 59 92 6.0 11.0 0.04 0.07 0.07 89 1031.3
20260901010307 59 111 6.0 11.0 0.05 0.07 0.07 88 1031.3
20260901005808 59 103 4.0 9.0 0.05 0.07 0.07 88 1031.5
20260901005310 60 97 3.0 7.0 0.05 0.07 0.07 88 1031.6
20260901005028 60 88 4.0 11.0 0.04 0.06 0.06 87 1031.6
20260901004527 60 97 5.0 11.0 0.04 0.06 0.06 86 1031.6
20260901003807 60 87 6.0 11.0 0.04 0.06 0.06 85 1031.7
20260901003306 60 97 6.0 11.0 0.05 0.06 0.06 84 1031.7
20260901002806 61 99 6.0 11.0 0.05 0.06 0.06 84 1031.8
20260901002306 61 88 4.0 9.0 0.05 0.06 0.06 84 1031.8
20260901001806 62 80 4.0 10.0 0.04 0.05 0.05 83 1032.0
20260901001303 62 113 5.0 11.0 0.05 0.05 0.05 82 1032.1
20260901000804 62 140 5.0 11.0 0.03 0.03 0.04 81 1032.0
20260901000304 62 174 4.0 10.0 0.02 0.02 0.02 78 1031.8
20260831235803 62 176 3.0 8.0 0.02 0.02 0.02 78 1031.7
20260831235753 62 130 3.0 8.0 0.02 0.02 0.02 71 1031.5
20260831235030 62 142 4.0 9.0 0.02 0.02 0.02 72 1031.2
20260831234304 62 134 4.0 9.0 0.02 0.02 0.02 74 1030.8
20260831234026 62 86 4.0 9.0 0.02 0.02 0.02 75 1030.6
20260831233304 62 132 5.0 11.0 0.01 0.01 0.01 74 1030.4
20260831233030 63 117 5.0 11.0 0.01 0.01 0.01 74 1030.3
20260831232305 63 120 4.0 14.0 0.01 0.01 0.01 70 1030.2
20260831232025 63 268 5.0 14.0 0.01 0.01 0.01 66 1030.2
20260831231304 64 179 5.0 14.0 0.00 0.00 0.00 73 1030.4
20260831230804 64 49 6.0 19.0 0.00 0.00 0.00 67 1030.3
20260831230304 64 101 7.0 19.0 0.00 0.00 0.00 67 1030.2
20260831225803 65 69 7.0 18.0 0.00 0.00 0.00 65 1030.2
20260831225306 66 53 5.0 13.0 0.00 0.00 0.00 64 1030.1
20260831224804 67 78 6.0 13.0 0.00 0.00 0.00 63 1030.1
20260831224304 68 87 8.0 20.0 0.00 0.00 0.00 60 1030.3
20260831223804 69 111 9.0 20.0 0.00 0.00 0.00 57 1030.3
20260831223304 70 111 10.0 23.0 0.00 0.00 0.00 54 1030.3
20260831222804 72 100 13.0 32.0 0.00 0.00 0.00 51 1030.3
20260831222301 73 140 17.0 32.0 0.00 0.00 0.00 45 1030.4
20260831221802 76 143 14.0 36.0 0.00 0.00 0.00 42 1030.3
20260831221302 79 170 8.0 36.0 0.00 0.00 0.00 37 1029.7
20260831220802 81 222 5.0 13.0 0.00 0.00 0.00 33 1029.9
20260831220300 81 207 6.0 12.0 0.00 0.00 0.00 32 1029.8
20260831215759 81 237 6.0 12.0 0.00 0.00 0.00 32 1029.8
20260831215259 82 175 5.0 11.0 0.00 0.00 0.00 32 1030.1
20260831214752 82 279 5.0 11.0 0.00 0.00 0.00 32 1030.1
20260831214246 82 248 6.0 12.0 0.00 0.00 0.00 32 1029.8
20260831213740 82 253 5.0 12.0 0.00 0.00 0.00 32 1029.9
20260831213235 82 215 4.0 11.0 0.00 0.00 0.00 32 1030.2
20260831212728 82 174 4.0 11.0 0.00 0.00 0.00 32 1030.2
20260831212225 82 175 4.0 12.0 0.00 0.00 0.00 32 1030.3
20260831211725 82 168 6.0 15.0 0.00 0.00 0.00 33 1030.4
20260831211225 82 186 7.0 15.0 0.00 0.00 0.00 33 1030.4
20260831210725 80 189 5.0 12.0 0.00 0.00 0.00 35 1030.6
20260831210225 79 161 4.0 10.0 0.00 0.00 0.00 38 1030.6
20260831210219 79 158 4.0 10.0 0.00 0.00 0.00 38 1030.6
20260831205448 78 117 4.0 10.0 0.00 0.00 0.00 40 1030.7
20260831204725 78 78 4.0 12.0 0.00 0.00 0.00 40 1030.8
20260831204225 78 136 5.0 13.0 0.00 0.00 0.00 39 1030.8
20260831203724 79 98 6.0 14.0 0.00 0.00 0.00 39 1030.9
20260831203224 79 107 6.0 14.0 0.00 0.00 0.00 37 1030.9
20260831202721 80 112 4.0 12.0 0.00 0.00 0.00 36 1030.7
20260831202219 80 139 3.0 10.0 0.00 0.00 0.00 37 1030.8
20260831201720 80 80 3.0 10.0 0.00 0.00 0.00 36 1030.8
20260831201446 80 133 3.0 10.0 0.00 0.00 0.00 36 1030.8
20260831200720 80 347 5.0 11.0 0.00 0.00 0.00 37 1030.9
20260831200220 80 76 4.0 11.0 0.00 0.00 0.00 37 1031.1
20260831195719 79 165 3.0 8.0 0.00 0.00 0.00 36 1030.9
20260831195213 79 188 4.0 10.0 0.00 0.00 0.00 36 1031.1
20260831194707 79 88 5.0 10.0 0.00 0.00 0.00 36 1031.1
20260831194201 79 136 5.0 10.0 0.00 0.00 0.00 37 1031.2
20260831193655 79 184 6.0 10.0 0.00 0.00 0.00 35 1031.2
20260831193149 79 151 6.0 10.0 0.00 0.00 0.00 38 1031.3
20260831192643 79 211 7.0 15.0 0.00 0.00 0.00 35 1031.3
20260831192136 80 200 8.0 15.0 0.00 0.00 0.00 33 1031.3
20260831191631 80 306 8.0 14.0 0.00 0.00 0.00 32 1031.3
20260831191125 81 268 7.0 14.0 0.00 0.00 0.00 33 1031.3
20260831190619 80 223 7.0 16.0 0.00 0.00 0.00 34 1031.3
20260831190113 80 233 7.0 15.0 0.00 0.00 0.00 34 1031.3
20260831185606 80 201 10.0 20.0 0.00 0.00 0.00 33 1031.5
20260831185101 80 198 10.0 20.0 0.00 0.00 0.00 33 1031.6
20260831184555 80 198 6.0 13.0 0.00 0.00 0.00 33 1031.6
20260831184309 81 192 6.0 16.0 0.00 0.00 0.00 32 1031.6
20260831183542 81 186 6.0 16.0 0.00 0.00 0.00 32 1031.6
20260831183037 81 200 7.0 16.0 0.00 0.00 0.00 32 1031.7
20260831182531 82 213 8.0 16.0 0.00 0.00 0.00 31 1031.8
20260831182025 82 240 7.0 15.0 0.00 0.00 0.00 31 1031.8
20260831181519 82 290 5.0 15.0 0.00 0.00 0.00 31 1031.8
20260831181235 82 190 4.0 13.0 0.00 0.00 0.00 32 1032.0
20260831180507 81 251 4.0 13.0 0.00 0.00 0.00 31 1032.1
20260831180218 82 223 4.0 12.0 0.00 0.00 0.00 31 1032.1
20260831175454 81 198 3.0 7.0 0.00 0.00 0.00 33 1032.1
20260831174950 81 293 3.0 11.0 0.00 0.00 0.00 32 1032.1
20260831174443 80 175 3.0 11.0 0.00 0.00 0.00 33 1032.2
20260831173937 79 226 3.0 8.0 0.00 0.00 0.00 34 1032.1
20260831173431 79 290 3.0 8.0 0.00 0.00 0.00 35 1032.2
20260831172926 78 63 2.0 7.0 0.00 0.00 0.00 34 1032.2
20260831172640 78 327 3.0 11.0 0.00 0.00 0.00 36 1032.2
20260831171912 77 329 6.0 12.0 0.00 0.00 0.00 37 1032.2
20260831171407 76 331 7.0 13.0 0.00 0.00 0.00 37 1032.3
20260831170901 76 329 6.0 13.0 0.00 0.00 0.00 38 1032.3
20260831170355 76 330 5.0 11.0 0.00 0.00 0.00 37 1032.3
20260831165849 76 307 5.0 11.0 0.00 0.00 0.00 38 1032.5
20260831165343 75 5 5.0 14.0 0.00 0.00 0.00 39 1032.5
20260831164837 74 339 6.0 14.0 0.00 0.00 0.00 39 1032.5
20260831164331 74 296 6.0 13.0 0.00 0.00 0.00 42 1032.3
20260831163825 73 0 5.0 13.0 0.00 0.00 0.00 42 1032.3
20260831163319 72 259 6.0 13.0 0.00 0.00 0.00 43 1032.3
20260831162813 71 5 7.0 13.0 0.00 0.00 0.00 43 1032.3
20260831162307 71 346 7.0 15.0 0.00 0.00 0.00 44 1032.2
20260831161802 71 315 7.0 15.0 0.00 0.00 0.00 44 1032.2
20260831161255 70 350 7.0 12.0 0.00 0.00 0.00 45 1032.3
20260831160749 69 329 8.0 14.0 0.00 0.00 0.00 46 1032.2
20260831160244 69 20 8.0 14.0 0.00 0.00 0.00 47 1032.3
20260831155745 68 314 7.0 15.0 0.00 0.00 0.00 48 1032.3
20260831155242 68 304 7.0 15.0 0.00 0.00 0.00 49 1032.2
20260831154744 67 29 9.0 16.0 0.00 0.00 0.00 50 1032.2
20260831154243 67 0 9.0 16.0 0.00 0.00 0.00 51 1032.2
20260831153743 67 26 9.0 16.0 0.00 0.00 0.00 51 1032.2
20260831153243 67 336 10.0 19.0 0.00 0.00 0.00 52 1032.3
20260831152743 66 279 10.0 19.0 0.00 0.00 0.00 52 1032.3
20260831152241 66 15 9.0 17.0 0.00 0.00 0.00 53 1032.3
20260831152002 65 30 9.0 16.0 0.00 0.00 0.00 53 1032.3
20260831151507 65 17 10.0 17.0 0.00 0.00 0.00 53 1032.3
20260831151003 65 9 12.0 17.0 0.00 0.00 0.00 55 1032.5
20260831150241 64 30 13.0 18.0 0.00 0.00 0.00 56 1032.6
20260831145740 64 22 13.0 18.0 0.00 0.00 0.00 56 1032.6
20260831145241 64 29 12.0 18.0 0.00 0.00 0.00 56 1032.7
20260831144740 64 25 13.0 19.0 0.00 0.00 0.00 58 1032.8
20260831144235 63 20 14.0 21.0 0.00 0.00 0.00 58 1032.8
20260831143729 63 9 15.0 21.0 0.00 0.00 0.00 58 1032.8
20260831143226 63 10 14.0 21.0 0.00 0.00 0.00 59 1033.0
20260831142726 63 24 15.0 22.0 0.00 0.00 0.00 59 1033.0
20260831142227 63 38 14.0 22.0 0.00 0.00 0.00 59 1032.8
20260831141727 62 42 12.0 20.0 0.00 0.00 0.00 60 1032.8
20260831141227 62 328 12.0 19.0 0.00 0.00 0.00 60 1032.7
20260831140727 62 32 13.0 21.0 0.00 0.00 0.00 60 1032.8
20260831140227 62 10 14.0 24.0 0.00 0.00 0.00 60 1032.8
20260831135727 62 0 15.0 24.0 0.00 0.00 0.00 60 1032.8
20260831135227 62 15 14.0 24.0 0.00 0.00 0.00 59 1032.7
20260831134727 62 24 14.0 23.0 0.00 0.00 0.00 59 1032.7
20260831134227 62 345 15.0 23.0 0.00 0.00 0.00 59 1032.7
20260831133727 61 24 14.0 20.0 0.00 0.00 0.00 58 1032.6
20260831133227 61 21 15.0 23.0 0.00 0.00 0.00 57 1032.6
20260831132728 62 39 16.0 23.0 0.00 0.00 0.00 57 1032.5
20260831132228 62 355 16.0 23.0 0.00 0.00 0.00 57 1032.3
20260831131726 61 299 16.0 24.0 0.00 0.00 0.00 57 1032.5